[[{"header":{"parameterUnit":"m.s-1","parameterCategory":1,"la1":30.2991,"la2":30.254,"lo1":-89.0895,"lo2":-89.0444,"dy":0.0017,"dx":0.0017,"nx":28,"ny":28,"refTime":"2023-10-14T03:00:00:Z","depth":0,"parameterNumber":2,"parameterNumberName":"U-component_of_WINDS"},"data":[0,0,0,0,0,0,0,0,0,0,0,0,0,0,0,0,0,0,0,0,0,0,0,0,0,0,0,0,0,0,0,0,0,0,0,0,0,0,0,0,0,0,0,0,0,0,0,0,0,0,0,0,0,0,0,0,0,0,2.983,2.983,0,2.9851,2.9851,2.9852,2.9806,2.9805,2.9803,2.9802,2.9821,2.9823,2.9825,0,0,0,0,0,0,0,0,0,0,0,0,0,2.975,2.9752,2.983,2.983,2.9831,2.9851,2.9851,2.9852,2.9806,2.9805,2.9803,2.9801,2.9821,2.9823,2.9825,0,0,0,0,0,0,0,0,0,0,0,0,0,2.9779,2.9752,2.983,2.981,2.9809,2.9851,2.9851,2.9852,2.9807,2.9804,2.9802,2.98,2.982,2.9823,2.9826,2.9887,0,0,2.9834,2.9835,0,0,0,0,0,0,0,0,2.9778,2.9782,2.9813,2.9812,2.981,2.9824,2.983,2.9863,2.9807,2.9807,2.9802,2.9799,2.9824,2.9826,2.9835,2.9888,2.9889,2.9834,2.9836,2.9837,2.9838,0,0,0,0,0,0,0,2.9776,2.9781,2.9838,2.9814,2.9812,2.98,2.9802,2.9836,2.9828,2.9807,2.9804,2.9807,2.9823,2.9832,2.9835,2.9889,2.9834,2.9837,2.9839,2.984,2.9995,2.9997,0,0,0,0,0,0,2.9776,2.978,2.9838,2.9839,2.9788,2.9804,2.9806,2.9822,2.9827,2.9826,2.9809,2.9805,2.9829,2.9832,2.9836,2.9909,2.9837,2.984,2.9842,2.9993,2.9996,2.9998,0,0,0,0,0,0,2.9775,2.9782,2.9837,2.9808,2.9815,2.9807,2.9826,2.9823,2.9833,2.9829,2.9827,2.9821,2.9827,2.9832,2.9875,2.9909,2.9841,2.9844,2.999,2.9994,2.9997,3.0055,0,0,0,0,0,0,2.9773,2.9782,2.9805,2.9809,2.9816,2.9876,2.9828,2.9825,2.9838,2.9833,2.9839,2.9838,2.9826,2.9871,2.9878,2.9911,2.9846,2.9987,2.9992,2.9996,3.005,3.006,3.0069,0,0,0,0,0,2.977,2.9819,2.9806,2.9813,2.9845,2.9878,2.9882,2.9868,2.9841,2.9864,2.9862,2.9838,2.9904,2.9876,2.9883,2.9918,2.9985,2.999,2.9996,3.0046,3.0058,3.0069,0,0,0,0,0,0,2.9817,2.9819,2.9805,2.9857,2.9868,2.987,2.9899,2.9881,2.9899,2.9893,2.9874,2.9876,2.9923,2.9925,2.9893,2.9979,2.994,2.9947,2.9976,2.9987,2.9997,2.9995,2.9848,0,0,0,0,0,2.9834,2.9861,2.9861,2.9908,2.9914,2.9906,2.992,2.9908,2.9918,2.9922,2.9923,2.9933,2.9956,2.9972,2.9993,3.0051,3.0052,3.0078,3.0088,3.0095,3.0102,3.0133,3.0146,3.0016,3.0016,3.0016,0,0,2.9869,2.9873,2.9891,2.9918,2.9924,2.9953,2.991,2.9941,2.9962,2.9927,2.9968,2.9969,2.998,3.0031,3.0053,3.0034,3.0138,3.0102,3.0109,3.0111,3.014,3.0153,3.0163,3.002,3.0019,3.0019,0,0,2.9946,2.9952,2.9992,3.0001,3.0013,3.0007,3.0017,3.0023,3.0023,3.0064,3.0039,3.0063,3.0104,3.0112,3.0122,3.0206,3.0185,3.0214,3.0262,3.0294,3.0304,3.0313,3.0343,3.0354,3.022,3.022,3.022,0,2.9987,3.003,3.0015,3.0049,3.0062,3.0032,3.0073,3.0082,3.0099,3.0109,3.0087,3.0139,3.0143,3.0197,3.0217,3.0226,3.0237,3.0212,3.0304,3.0313,3.0321,3.0349,3.0361,3.0224,3.0223,3.0223,3.0223,0,3.008,3.011,3.0141,3.016,3.0177,3.0214,3.0205,3.0223,3.0211,3.0208,3.0252,3.0257,3.0279,3.0291,3.0278,3.0343,3.0331,3.0307,3.0267,3.0337,3.0363,3.0374,3.0229,3.0227,3.0226,3.0225,0,0,3.0186,3.0199,3.0211,3.022,3.0232,3.0255,3.0291,3.0314,3.033,3.0344,3.0374,3.0411,3.0389,3.04,3.0389,3.0416,3.0484,3.0389,3.0389,3.0407,3.0556,3.0574,3.0587,3.047,3.0472,3.0474,3.0556,0,3.0263,3.0326,3.0316,3.0377,3.0405,3.0379,3.0411,3.0422,3.0421,3.0444,3.0442,3.0469,3.0438,3.0445,3.0471,3.047,3.0513,3.0464,3.0498,3.0499,3.0496,3.0601,3.062,3.0697,3.0566,3.0568,3.0569,0,3.0361,3.038,3.0445,3.0455,3.0466,3.0495,3.0516,3.0539,3.0551,3.0549,3.0563,3.0547,3.0583,3.0544,3.0595,3.0561,3.0575,3.0577,3.058,3.0582,3.0538,3.0606,3.0721,3.0732,3.0585,3.0584,3.0583,0,3.0432,3.0475,3.0519,3.0528,3.054,3.0561,3.0567,3.0577,3.0592,3.0611,3.0621,3.0643,3.0655,3.0673,3.0664,3.0636,3.0717,3.0676,3.0715,3.0716,3.0732,3.0731,3.0851,3.0742,3.0742,3.0741,3.0741,0,3.0519,3.056,3.0552,3.0579,3.0624,3.0612,3.0657,3.0659,3.0669,3.0697,3.0675,3.0702,3.0688,3.0713,3.0706,3.075,3.0755,3.0754,3.0752,3.0756,3.0756,3.0764,3.0758,3.0745,3.0744,3.0743,3.0743,0,3.0606,3.0602,3.0649,3.0658,3.0661,3.0694,3.0701,3.0727,3.0725,3.076,3.0768,3.0765,3.0794,3.0787,3.0818,3.0813,3.0868,3.0859,3.0864,3.0862,3.0902,3.0898,3.103,3.1047,3.0927,3.0928,3.0929,0,3.0661,3.0692,3.0705,3.0723,3.0731,3.0759,3.0775,3.0765,3.0782,3.08,3.0824,3.0852,3.0873,3.092,3.0921,3.0945,3.0936,3.0981,3.0939,3.0943,3.0937,3.0935,3.0939,3.0989,3.099,3.0991,3.0992,0,3.0761,3.0758,3.0782,3.0807,3.0827,3.0846,3.0862,3.0878,3.0869,3.089,3.092,3.0937,3.097,3.0997,3.102,3.1026,3.1008,3.1006,3.1016,3.102,3.1022,3.1022,3.0887,3.1002,3.1001,3.1,3.1,3.0999,3.0833,3.086,3.0874,3.0903,3.0914,3.0931,3.0956,3.0959,3.0984,3.1011,3.1003,3.1038,3.1051,3.108,3.1089,3.1116,3.1099,3.1113,3.1117,3.1121,3.1126,3.1019,3.112,3.1119,3.1119,3.1119,3.1119,0,3.0931,3.094,3.0966,3.0991,3.1014,3.0997,3.1015,3.1035,3.1066,3.108,3.1102,3.1138,3.1165,3.1169,3.1195,3.1216,3.1208,3.1223,3.1221,3.1223,3.1139,3.1128,3.1228,3.1228,3.1228,3.1228,3.1228,3.1228,3.0985,3.103,3.103,3.1081,3.1089,3.1123,3.1135,3.115,3.1162,3.1203,3.1226,3.1229,3.1239,3.1266,3.1291,3.1291,3.1302,3.132,3.1317,3.1239,3.1228,3.1218,3.1207,3.1322,3.1322,3.1398,3.1398,3.1399]},{"header":{"parameterUnit":"m.s-1","parameterCategory":1,"la1":30.2991,"la2":30.254,"lo1":-89.0895,"lo2":-89.0444,"dy":0.0017,"dx":0.0017,"nx":28,"ny":28,"refTime":"2023-10-14T03:00:00:Z","depth":0,"parameterNumber":3,"parameterNumberName":"V-component_of_WINDS"},"data":[0,0,0,0,0,0,0,0,0,0,0,0,0,0,0,0,0,0,0,0,0,0,0,0,0,0,0,0,0,0,0,0,0,0,0,0,0,0,0,0,0,0,0,0,0,0,0,0,0,0,0,0,0,0,0,0,0,0,-5.7608,-5.7609,0,-5.7725,-5.7727,-5.7728,-5.768,-5.7677,-5.7674,-5.7671,-5.7787,-5.7793,-5.7798,0,0,0,0,0,0,0,0,0,0,0,0,0,-5.7339,-5.7344,-5.7608,-5.7609,-5.7611,-5.7725,-5.7727,-5.7728,-5.768,-5.7677,-5.7673,-5.767,-5.7785,-5.7792,-5.7799,0,0,0,0,0,0,0,0,0,0,0,0,0,-5.7456,-5.7346,-5.7607,-5.7601,-5.7601,-5.7725,-5.7727,-5.7729,-5.7681,-5.7677,-5.7673,-5.7669,-5.7783,-5.7791,-5.78,-5.7935,0,0,-5.7826,-5.7829,0,0,0,0,0,0,0,0,-5.7449,-5.7466,-5.76,-5.7601,-5.7602,-5.7684,-5.7674,-5.7798,-5.7682,-5.765,-5.7671,-5.7667,-5.7756,-5.7766,-5.7797,-5.7941,-5.7946,-5.7826,-5.7831,-5.7835,-5.7837,0,0,0,0,0,0,0,-5.7441,-5.7461,-5.7654,-5.7602,-5.7603,-5.7591,-5.7603,-5.7697,-5.7725,-5.7653,-5.765,-5.7664,-5.7755,-5.7789,-5.7799,-5.7947,-5.7826,-5.7834,-5.7839,-5.7842,-5.821,-5.8215,0,0,0,0,0,0,-5.7434,-5.7454,-5.765,-5.7657,-5.7514,-5.7599,-5.7612,-5.7662,-5.7724,-5.7729,-5.7668,-5.7662,-5.7777,-5.779,-5.7803,-5.7968,-5.7835,-5.7843,-5.7848,-5.8206,-5.8212,-5.8217,0,0,0,0,0,0,-5.7428,-5.7452,-5.7645,-5.7555,-5.7579,-5.7608,-5.7664,-5.7666,-5.77,-5.7735,-5.7739,-5.7698,-5.7774,-5.7791,-5.7904,-5.7971,-5.7847,-5.7855,-5.82,-5.8208,-5.8214,-5.8298,0,0,0,0,0,0,-5.742,-5.745,-5.7502,-5.7557,-5.7584,-5.7745,-5.7668,-5.7671,-5.7715,-5.7708,-5.7764,-5.7769,-5.7772,-5.7891,-5.7912,-5.7981,-5.7861,-5.8194,-5.8204,-5.8212,-5.8289,-5.8307,-5.8322,0,0,0,0,0,-5.7411,-5.7519,-5.7505,-5.7529,-5.765,-5.7749,-5.7764,-5.7767,-5.7721,-5.7774,-5.7797,-5.7767,-5.7961,-5.7903,-5.7926,-5.7999,-5.819,-5.8201,-5.8211,-5.8282,-5.8303,-5.8322,0,0,0,0,0,0,-5.747,-5.7526,-5.7511,-5.7641,-5.7691,-5.7741,-5.7807,-5.7789,-5.7852,-5.7843,-5.7841,-5.7854,-5.7971,-5.7995,-5.7931,-5.8134,-5.8068,-5.8084,-5.8114,-5.8135,-5.8151,-5.8143,-5.7868,0,0,0,0,0,-5.7498,-5.7575,-5.762,-5.773,-5.7756,-5.7778,-5.7821,-5.7818,-5.7869,-5.789,-5.7921,-5.7971,-5.8043,-5.809,-5.8158,-5.8292,-5.8304,-5.8354,-5.837,-5.8383,-5.8397,-5.8472,-5.8495,-5.8251,-5.8251,-5.8251,0,0,-5.7557,-5.7597,-5.7645,-5.7743,-5.7781,-5.786,-5.7795,-5.7881,-5.794,-5.7902,-5.8011,-5.8036,-5.8091,-5.8216,-5.8272,-5.824,-5.8467,-5.8397,-5.8407,-5.8414,-5.8485,-5.8508,-5.8528,-5.8258,-5.8257,-5.8256,0,0,-5.7705,-5.7743,-5.784,-5.7881,-5.7941,-5.7955,-5.7978,-5.8032,-5.8048,-5.8158,-5.8132,-5.8201,-5.8324,-5.8366,-5.8403,-5.857,-5.8546,-5.8591,-5.8677,-5.875,-5.8769,-5.8786,-5.8847,-5.8869,-5.8605,-5.8605,-5.8605,0,-5.777,-5.7889,-5.7891,-5.7981,-5.8024,-5.7997,-5.8095,-5.8134,-5.8212,-5.8243,-5.8206,-5.8363,-5.8398,-5.8533,-5.8574,-5.8604,-5.8631,-5.8585,-5.8767,-5.8784,-5.88,-5.8858,-5.888,-5.861,-5.861,-5.8609,-5.8609,0,-5.7967,-5.805,-5.8121,-5.8201,-5.8252,-5.8345,-5.8361,-5.8413,-5.8407,-5.8425,-5.8538,-5.858,-5.8657,-5.8688,-5.8682,-5.8823,-5.8802,-5.8766,-5.87,-5.8828,-5.8883,-5.8905,-5.8618,-5.8616,-5.8614,-5.8613,0,0,-5.8153,-5.8235,-5.8261,-5.8298,-5.8364,-5.8428,-5.852,-5.8597,-5.8643,-5.8698,-5.8776,-5.8883,-5.8851,-5.8893,-5.8891,-5.8955,-5.9087,-5.8912,-5.8913,-5.8944,-5.9247,-5.9274,-5.93,-5.9071,-5.9076,-5.9079,-5.9243,0,-5.8307,-5.8471,-5.8477,-5.8626,-5.8703,-5.8679,-5.876,-5.8809,-5.8828,-5.8896,-5.8917,-5.8994,-5.8945,-5.8971,-5.9033,-5.9058,-5.9148,-5.9046,-5.9143,-5.9147,-5.9131,-5.9328,-5.9356,-5.9509,-5.9264,-5.9267,-5.927,0,-5.8508,-5.8573,-5.8731,-5.8788,-5.882,-5.8893,-5.8966,-5.9031,-5.9086,-5.9096,-5.9145,-5.9135,-5.9229,-5.916,-5.929,-5.922,-5.9261,-5.9279,-5.9285,-5.9294,-5.9217,-5.9344,-5.9557,-5.9581,-5.9303,-5.9301,-5.9298,0,-5.863,-5.8757,-5.8868,-5.89,-5.8969,-5.9021,-5.9052,-5.9103,-5.915,-5.9213,-5.9244,-5.9316,-5.9356,-5.9412,-5.9422,-5.937,-5.9553,-5.9484,-5.9563,-5.9564,-5.9603,-5.96,-5.9827,-5.9628,-5.9627,-5.9627,-5.9626,0,-5.8802,-5.8899,-5.8925,-5.8993,-5.9102,-5.9108,-5.9215,-5.9242,-5.9288,-5.9361,-5.9344,-5.9413,-5.9421,-5.9491,-5.9499,-5.9607,-5.9624,-5.9635,-5.9636,-5.9637,-5.9636,-5.9663,-5.9653,-5.9633,-5.9632,-5.963,-5.9629,0,-5.8956,-5.8977,-5.9097,-5.9154,-5.917,-5.9248,-5.9296,-5.9362,-5.938,-5.9473,-5.9495,-5.9524,-5.9607,-5.9623,-5.9719,-5.9724,-5.9853,-5.9843,-5.9835,-5.9834,-5.9914,-5.9907,-6.0167,-6.0202,-5.9979,-5.9981,-5.9983,0,-5.9065,-5.914,-5.9205,-5.9254,-5.9289,-5.9367,-5.9416,-5.9425,-5.9476,-5.9546,-5.9604,-5.9685,-5.9751,-5.9884,-5.9913,-5.9988,-5.998,-6.0066,-5.999,-5.999,-5.9982,-5.9978,-5.9986,-6.008,-6.0083,-6.0084,-6.0086,0,-5.9255,-5.9263,-5.9335,-5.9412,-5.9471,-5.9532,-5.9588,-5.9629,-5.9646,-5.9704,-5.979,-5.9842,-5.9942,-6.0024,-6.0099,-6.0129,-6.0111,-6.011,-6.0133,-6.0135,-6.0128,-6.0134,-5.9876,-6.0104,-6.0102,-6.0101,-6.01,-6.0099,-5.9391,-5.9458,-5.9515,-5.9597,-5.9641,-5.9696,-5.9761,-5.979,-5.9862,-5.9946,-5.9947,-6.0041,-6.0096,-6.0195,-6.023,-6.0304,-6.0276,-6.0308,-6.0317,-6.0325,-6.0333,-6.0116,-6.0317,-6.0317,-6.0316,-6.0316,-6.0315,0,-5.9582,-5.9618,-5.9694,-5.9776,-5.984,-5.982,-5.9883,-5.9937,-6.0022,-6.0075,-6.0141,-6.0241,-6.032,-6.0357,-6.0435,-6.0487,-6.0481,-6.0507,-6.0504,-6.0512,-6.0353,-6.0326,-6.0511,-6.0511,-6.0511,-6.0511,-6.0511,-6.0511,-5.9689,-5.9801,-5.9816,-5.9951,-5.9986,-6.008,-6.0118,-6.0168,-6.0212,-6.0324,-6.0391,-6.0416,-6.0463,-6.0545,-6.0617,-6.0625,-6.0655,-6.0686,-6.0691,-6.0542,-6.0522,-6.0503,-6.0478,-6.0693,-6.0693,-6.0844,-6.0845,-6.0846]}]]